SL-8 DEB, 57000

Orbit data source: Space-Track

SL-8 DEB, 57000 is space debris in LEO originally from a launch on Wed, 01 Nov 1972 UTC launched from the Plesetsk Missile And Space Complex (PKMTR). Debris objects in space refer to the collection of defunct objects orbiting the Earth. Examples of debris include non-operational satellites, rocket bodies, and fragments generated from explosions, collisions, or faulty payload assembly.

Loading next visibility...
Identifier
57000, 1972-087L
Orbit
LEO
Country
Flag of CISCIS
Related business
Manufacturer
RVSN
Mission
Spacecraft
Bus & Motor
Unknown
Mass
Unknown
Launch date (UTC)
1972-11-01 (54 years ago)
Launch vehicle
Unknown
Launch site
Plesetsk Missile And Space Complex (PKMTR)
Object type
Payload
Rocket body
Debris
Shape & HBR
Unknown shape, 0.1 m
Radar Cross Section
Medium (>0.1 m² and <1 m²)

Expand to show TLE details & history
Last TLE update: 3 weeks ago

TLE from 3 weeks ago
0 SL-8 DEB
1 57000U 72087L   26149.97068130  .00000057  00000-0  56502-3 0  9995
2 57000  74.0401  22.4136 0080311 107.1682 253.8174 12.35363189564529
Epoch: 2026-05-29T23:17Z
TLE epoch observation values (Epoch: 2026-05-29T23:17:46.864Z)
Latitude
0.00007°
Longitude
145.47493°
Altitude
1,546.846 km
Speed
7.085 km/s
True Right ascension
01h 29m 39s
True Declination
0° 00' 00"
Sunlit
Object was in daylight at epoch
Visualization orbit readout
Latitude
Unknown
Longitude
Unknown
Altitude
Unknown
Speed
Unknown
Apparent Right ascension
Unknown
Apparent Declination
Unknown
Sunlit
N/A
Visualization observer readout
Local Sidereal Time
21:31:35
Azimuth
Unknown
Elevation
Unknown
Doppler factor
Unknown
Orbital elements
Apogee altitude
1,587.636 km
Perigee altitude
1,460.707 km
Semi-major axis
7,902.309 km
Eccentricity
0.00803
Inclination
74.0401°
RAAN
22.4136°
Arg. of periapsis
107.1682°
True anomaly
252.93607°
Mean anomaly
253.8174°
Eccentric anomaly
253.37648°
Mean motion
3.08967 °/min
Orbital period
116.52 mins
BSTAR
0.00056502
Loading maneuver chart data...
Computing Atmospheric mass density...
Loading historical data...
Loading historical data...
Loading historical data...
Loading historical data...
Loading historical data...
Loading historical data...
Loading historical data...

Documentation

Showing up to 5 results
|